Regional Weather Roundup
Issued by NWS

Home | Current Version | Previous Version | Graphics & Text | Print | Product List | Glossary On
Versions: 1 2 3 4 5 6 7 8 9 10 11 12 13 14 15 16 17 18 19 20 21 22 23 24 25 26 27 28 29 30 31 32 33 34 35 36 37 38 39 40 41 42 43 44 45 46 47 48 49 50
000
ASUS43 KBIS 221410
RWRND

NORTH DAKOTA REGIONAL WEATHER ROUNDUP
NATIONAL WEATHER SERVICE BISMARCK ND
900 AM CDT FRI JUL 22 2016

NOTE: "FAIR" INDICATES FEW OR NO CLOUDS BELOW 12,000 FEET WITH NO
SIGNIFICANT WEATHER AND/OR OBSTRUCTIONS TO VISIBILITY.


NDZ001>003-009>011-017-221500-
NORTHWEST NORTH DAKOTA

CITY           SKY/WX    TMP DP  RH WIND       PRES   REMARKS
WILLISTON      SUNNY     73  53  49 NE7       30.06R
MINOT          SUNNY     76  57  51 N3        30.06F
MINOT AFB      SUNNY     71  57  60 NE5       30.05F
$$

NDZ018>021-031>035-040>046-221500-
SOUTHWEST NORTH DAKOTA

CITY           SKY/WX    TMP DP  RH WIND       PRES   REMARKS
BISMARCK       CLOUDY    75  68  78 E8        30.03F
DICKINSON      PTSUNNY   68  65  90 E8        30.04S
GARRISON         N/A     75  56  51 NE9       30.06R
HETTINGER ARPT CLOUDY    72  68  87 NE8       30.07R
$$

NDZ004>008-012>016-024-026-027-054-221500-
NORTHEAST NORTH DAKOTA

CITY           SKY/WX    TMP DP  RH WIND       PRES   REMARKS
GRAND FORKS    MOSUNNY   78  63  59 N6        30.00S
GRND FRKS AFB  SUNNY     78  62  59 N6        30.01S
DEVILS LAKE    SUNNY     75  62  64 N7        30.05S
$$

NDZ022-023-025-028>030-036>039-047>053-221500-
SOUTHEAST NORTH DAKOTA

CITY           SKY/WX    TMP DP  RH WIND       PRES   REMARKS
FARGO          SUNNY     80  70  71 CALM      30.01S
JAMESTOWN      SUNNY     78  70  76 S3        30.03S
$$





USA.gov is the U.S. government's official web portal to all federal, state and local government web resources and services.